TimeCST,TemperatureF,Dew PointF,Humidity,Sea Level PressureIn,VisibilityMPH,Wind Direction,Wind SpeedMPH,Gust SpeedMPH,PrecipitationIn,Events,Conditions,WindDirDegrees,DateUTC
12:16 AM,32.0,28.4,87,29.83,4.0,West,5.8,-,N/A,,Mostly Cloudy,260,2012-12-17 06:16:00
12:26 AM,32.0,28.4,87,29.83,4.0,West,4.6,-,N/A,,Overcast,260,2012-12-17 06:26:00
12:53 AM,32.0,28.9,88,29.85,4.0,West,6.9,-,N/A,,Overcast,260,2012-12-17 06:53:00
1:07 AM,32.0,28.4,87,29.82,4.0,West,3.5,-,N/A,,Overcast,270,2012-12-17 07:07:00
1:40 AM,30.2,28.4,93,29.81,4.0,Calm,Calm,-,N/A,,Scattered Clouds,0,2012-12-17 07:40:00
1:53 AM,28.9,27.0,92,29.83,4.0,SW,4.6,-,N/A,,Clear,230,2012-12-17 07:53:00
2:53 AM,30.0,27.0,88,29.83,4.0,WSW,5.8,-,N/A,,Clear,240,2012-12-17 08:53:00
3:53 AM,28.9,26.1,89,29.83,4.0,Calm,Calm,-,N/A,,Clear,0,2012-12-17 09:53:00
4:53 AM,25.0,23.0,92,29.80,3.0,SSW,4.6,-,N/A,,Clear,200,2012-12-17 10:53:00
5:53 AM,24.1,21.0,88,29.80,3.0,SSW,5.8,-,N/A,,Clear,210,2012-12-17 11:53:00
6:11 AM,26.6,23.0,86,29.77,2.5,SSW,3.5,-,N/A,,Clear,210,2012-12-17 12:11:00
6:23 AM,28.4,24.8,86,29.77,3.0,SSW,3.5,-,N/A,,Clear,210,2012-12-17 12:23:00
6:30 AM,24.8,23.0,93,29.77,1.8,South,4.6,-,N/A,,Clear,190,2012-12-17 12:30:00
6:40 AM,21.2,21.2,100,29.77,0.5,South,5.8,-,N/A,Fog,Light Freezing Fog,190,2012-12-17 12:40:00
6:53 AM,24.1,21.0,88,29.82,0.8,SW,4.6,-,N/A,,Clear,220,2012-12-17 12:53:00
6:56 AM,24.8,21.2,86,29.78,2.0,SSW,4.6,-,N/A,,Clear,210,2012-12-17 12:56:00
7:04 AM,24.8,21.2,86,29.78,3.0,SW,4.6,-,N/A,,Clear,230,2012-12-17 13:04:00
7:53 AM,26.1,23.0,88,29.81,4.0,West,4.6,-,N/A,,Clear,260,2012-12-17 13:53:00
8:53 AM,28.9,25.0,85,29.81,5.0,SW,3.5,-,N/A,,Clear,220,2012-12-17 14:53:00
9:53 AM,37.0,28.9,73,29.81,10.0,WNW,8.1,-,N/A,,Clear,300,2012-12-17 15:53:00
10:53 AM,42.1,28.9,60,29.82,10.0,WNW,8.1,-,N/A,,Clear,290,2012-12-17 16:53:00
11:53 AM,46.0,28.9,51,29.81,10.0,NW,8.1,-,N/A,,Mostly Cloudy,310,2012-12-17 17:53:00
12:53 PM,48.9,28.0,44,29.76,10.0,Calm,Calm,-,N/A,,Mostly Cloudy,0,2012-12-17 18:53:00
1:53 PM,48.9,28.0,44,29.73,10.0,Variable,4.6,-,N/A,,Clear,0,2012-12-17 19:53:00
2:53 PM,53.1,24.1,32,29.70,10.0,SSW,9.2,-,N/A,,Clear,210,2012-12-17 20:53:00
3:53 PM,54.0,23.0,30,29.68,10.0,SW,8.1,-,N/A,,Clear,220,2012-12-17 21:53:00
6:53 PM,36.0,23.0,59,29.69,10.0,South,9.2,-,N/A,,Clear,170,2012-12-18 00:53:00
7:53 PM,37.9,24.1,57,29.67,10.0,South,9.2,-,N/A,,Clear,170,2012-12-18 01:53:00
8:53 PM,37.0,24.1,59,29.65,10.0,South,9.2,-,N/A,,Clear,180,2012-12-18 02:53:00
9:53 PM,41.0,26.1,55,29.62,10.0,South,11.5,-,N/A,,Clear,180,2012-12-18 03:53:00
10:53 PM,39.9,28.0,63,29.61,10.0,South,11.5,-,N/A,,Clear,190,2012-12-18 04:53:00
11:53 PM,41.0,28.9,62,29.60,10.0,SSW,13.8,-,N/A,,Clear,200,2012-12-18 05:53:00